Location: Buch
(50.1863°N, 11.0141°E)
Time: 17:12:41
(UTC+00:00)

Lacrosse 5 rocket - Pass Details

Date: 18 January 2020
Orbit: 465 x 632 km, 57.0° (Epoch: 25 February)

Event Time Altitude Azimuth Distance (km) Brightness Sun altitude
Exits shadow 05:10:54 35° 303° (WNW) 1,011 2.1 -18.1°
Maximum altitude 05:12:07 43° 343° (NNW) 877 2.1 -17.9°
Drops below altitude 10° 05:16:26 10° 56° (NE) 1,973 4.7 -17.2°
Sets 05:18:47 0° 63° (ENE) 2,856 5.8 -16.9°
